Regional Weather Roundup
Issued by NWS

Home | Current Version | Previous Version | Text Only | Print | Product List | Glossary On
Versions: 1 2 3 4 5 6 7 8 9 10 11 12 13 14 15 16 17 18 19 20 21 22 23 24 25 26 27 28 29 30 31 32 33 34 35 36 37 38 39 40 41 42 43 44 45 46 47 48 49 50
000
ASUS43 KTOP 051259
RWRKS

WEATHER ROUNDUP FOR KANSAS
NATIONAL WEATHER SERVICE GOODLAND KS
800 AM CDT TUE MAY 05 2015

NOTE:  "FAIR" INDICATES FEW OR NO CLOUDS BELOW 12,000 FEET WITH NO
SIGNIFICANT WEATHER AND/OR OBSTRUCTIONS TO VISIBILITY.

KSZ001>006-013>018-027>032-041>047-051400-
NORTHWEST KANSAS

CITY           SKY/WX    TMP DP  RH WIND       PRES   REMARKS
GOODLAND       FOG       53  53 100 E7        30.00S VSB 1/4
HAYS           CLOUDY    59  54  82 SE10      30.01R
HILL CITY      CLOUDY    60  57  89 E3        30.00F
RUSSELL        CLOUDY    60  58  92 SE13      29.99S
$$

KSZ061>065-074>080-084>089-051400-
SOUTHWEST KANSAS

CITY           SKY/WX    TMP DP  RH WIND       PRES   REMARKS
DODGE CITY     CLOUDY    59  55  87 SE14      29.98R
ELKHART          N/A     55  51  86 E6          N/A
GARDEN CITY    CLOUDY    58  57  97 E14       29.95S FOG
GREAT BEND     CLOUDY    61  54  77 SE12      30.01R
LIBERAL        CLOUDY    59  55  88 SE7       29.96R
$$

KSZ066>073-081>083-090>101-051400-
SOUTHEAST KANSAS

CITY           SKY/WX    TMP DP  RH WIND       PRES   REMARKS
CHANUTE        SUNNY     65  58  78 SE12      30.09S
COFFEYVILLE    MOSUNNY   65  57  75 SE9       30.09S
HUTCHINSON     CLOUDY    62  54  74 SE10      30.04R
MEDICINE LODGE   N/A     61  55  81 E10       30.01R
NEWTON         CLOUDY    61  52  72 SE10      30.08R
PARSONS        MOSUNNY   66  58  75 SE7       30.10S
WICHITA INTL   CLOUDY    64  54  69 SE13      30.05R
WICHITA JABRA  CLOUDY    64  54  69 S12       30.06R
WINFIELD       PTSUNNY   63  56  78 SE12      30.08R
$$

KSZ007>012-019>026-033>040-048>060-102>105-051400-
NORTHEAST KANSAS

CITY           SKY/WX    TMP DP  RH WIND       PRES   REMARKS
CONCORDIA      CLOUDY    61  58  90 SE12      30.04R
EMPORIA        PTSUNNY   63  56  78 SE12      30.07R
LAWRENCE       CLOUDY    63  60  90 SE5       30.10R
MANHATTAN      PTSUNNY   63  59  87 CALM      30.06R
OLATHE IND     PTSUNNY   63  59  87 SE7       30.12R
OLATHE EXE     SUNNY     63  60  90 S5        30.11R
SALINA         CLOUDY    61  57  87 SE6       30.04R
TOPEKA BILLARD CLOUDY    63  61  93 E3        30.09R
TOPEKA FORBES  MOSUNNY   63  60  90 SE5       30.08R
$$



USA.gov is the U.S. government's official web portal to all federal, state and local government web resources and services.